Flag for U.S.A. Weather past 2 weeks in Angels Camp, California, U.S.A.

Now
57 °F

Sunny.


Feels Like: 56 °F
Forecast: 49 / 88 °F
Wind: 7 mph from Northwest

Location: Modesto City-County-Sham Field

Current Time: May 28, 2015 at 7:12:53 AM

Latest Report: May 28, 2015 at 6:53 AM


Visibility: 10 mi

Pressure: 29.98 "Hg

Humidity: 74%

Dew point: 49 °F

Location of Angels CampLocation

Historic Weather in Angels Camp — Graph

°F

Angels Camp temperature yesterday

Maximum temperature yesterday: 85 °F (at 4:53 PM)
Minimum temperature yesterday: 55 °F (at 3:53 AM)
Average temperature yesterday: 68 °F

Past Weeks' High & Low Weather Summary

 TemperatureHumidityPressure
High85 °F (May 24, 4:53 PM)90% (May 16, 5:53 AM)30.08 "Hg (May 16, 5:53 AM)
Low49 °F (May 16, 5:53 AM)20% (May 16, 3:53 PM)29.77 "Hg (May 14, 1:53 PM)
Average64 °F55%29.93 "Hg
* Reported May 13 5:53 AM — May 28 5:53 AM, Angels Camp, Weather by CustomWeather, © 2015

Note: Actual official high and low records may vary slightly from our data, if they occured in-between our weather recording intervals... More about our weather records

Advertising

Angels Camp weather history for previous 24 hours

 ConditionsComfort  
Time TempWeatherWind HumidityBarometerVisibility
5:53 AM
Thu, May 28
56 °FClear.8 mph77%29.96 "Hg10 mi
4:53 AM57 °FClear.9 mph74%29.94 "Hg10 mi
3:53 AM58 °FClear.9 mph72%29.94 "Hg10 mi
2:53 AM58 °FClear.7 mph72%29.94 "Hg10 mi
1:53 AM59 °FClear.5 mph67%29.94 "Hg10 mi
12:53 AM60 °FClear.7 mph65%29.94 "Hg10 mi
11:53 PM
Wed, May 27
61 °FClear.10 mph62%29.94 "Hg10 mi
10:53 PM64 °FClear.9 mph56%29.94 "Hg10 mi
9:53 PM68 °FClear.8 mph49%29.93 "Hg10 mi
8:53 PM72 °FSunny.9 mph41%29.92 "Hg10 mi
7:53 PM77 °FSunny.9 mph32%29.90 "Hg10 mi
6:53 PM82 °FSunny.12 mph31%29.89 "Hg10 mi
5:53 PM83 °FSunny.9 mph32%29.88 "Hg10 mi
4:53 PM85 °FSunny.10 mph30%29.89 "Hg10 mi
3:53 PM84 °FSunny.7 mph31%29.90 "Hg10 mi
2:53 PM82 °FSunny.7 mph32%29.91 "Hg10 mi
1:53 PM80 °FSunny.6 mph32%29.93 "Hg10 mi
12:53 PM77 °FSunny.7 mph37%29.95 "Hg10 mi
11:53 AM74 °FSunny.8 mph41%29.96 "Hg10 mi
10:53 AM70 °FSunny.8 mph49%29.97 "Hg10 mi
9:53 AM66 °FSunny.9 mph54%29.98 "Hg10 mi
8:53 AM63 °FSunny.8 mph60%29.98 "Hg10 mi
7:53 AM60 °FSunny.8 mph67%29.97 "Hg10 mi
Weather by CustomWeather, © 2015

See weather overviewHow to use our weather pages